Weather History for Quincy Muni, Quincy, FL, FL

Change the Weather History Date:

Thursday, August 14, 2014

  Actual Average (KTLH) Record (KTLH)
Temperature  
Mean Temperature 84 °F 82 °F  
Max Temperature 100 °F 92 °F 99 °F (2007)
Min Temperature 69 °F 72 °F 65 °F (1964)
Degree Days  
Heating Degree Days 0    
Month to date heating degree days  
Since 1 June heating degree days  
Since 1 July heating degree days  
Cooling Degree Days 20    
Month to date cooling degree days  
Year to date cooling degree days  
Since 1 June cooling degree days  
Growing Degree Days 34 (Base 50)    
Moisture  
Dew Point 71 °F    
Average Humidity 70    
Maximum Humidity 100    
Minimum Humidity 35    
Precipitation  
Precipitation 0.00 in 0.25 in 2.88 in (2006)
Month to date precipitation 3.65  
Year to date precipitation 40.21  
Sea Level Pressure  
Sea Level Pressure 30.00 in    
Wind  
Wind Speed 0 mph (West)    
Max Wind Speed 7 mph    
Max Gust Speed -    
Visibility 9 miles    
Events      
T = Trace of Precipitation, MM = Missing Value Source: NWS Daily Summary

Daily Weather History Graph

Daily Weather History Graph

Search for Another Location

Airport:

Trip Planner

Search our weather history database for the weather conditions in past years. The results will help you decide how hot, cold, wet, or windy it might be!

Date:

Astronomy

Aug. 14, 2014 Rise Set
Actual Time 7:04 AM EDT 8:21 PM EDT
Civil Twilight 6:38 AM EDT 8:46 PM EDT
Nautical Twilight 6:08 AM EDT 9:16 PM EDT
Astronomical Twilight 5:37 AM EDT 9:47 PM EDT
Moon 11:07 PM EDT (8/14) 11:17 AM EDT (8/14)
Length of Visible Light 14h 07m
Length of Day
13h 16m
Waning Gibbous, 79% of the Moon is Illuminated
Aug 14
Waning Gibbous
Aug 17
Last Quarter
Aug 25
New
Sep 2
First Quarter
Sep 8
Full

Hourly Weather History & Observations

Time (EDT) Temp. Heat Index Dew Point Humidity Pressure Visibility Wind Dir Wind Speed Gust Speed Precip Events Conditions
12:15 AM 77.0 °F - 73.4 °F 89% 30.00 in 8.0 mi Calm Calm - N/A   Overcast
12:35 AM 75.2 °F - 73.4 °F 94% 30.00 in 8.0 mi Calm Calm - N/A   Mostly Cloudy
12:55 AM 75.2 °F - 73.4 °F 94% 30.00 in 7.0 mi Calm Calm - N/A   Mostly Cloudy
1:15 AM 75.2 °F - 73.4 °F 94% 30.00 in 6.0 mi Calm Calm - N/A   Overcast
1:55 AM 75.2 °F - 73.4 °F 94% 29.99 in 5.0 mi Calm Calm - N/A   Partly Cloudy
2:15 AM 73.4 °F - 73.4 °F 100% 29.99 in 5.0 mi Calm Calm - N/A   Partly Cloudy
2:35 AM 73.4 °F - 73.4 °F 100% 29.99 in 5.0 mi Calm Calm - N/A   Partly Cloudy
2:55 AM 73.4 °F - 73.4 °F 100% 29.98 in 5.0 mi Calm Calm - N/A   Scattered Clouds
3:15 AM 73.4 °F - 73.4 °F 100% 29.98 in 5.0 mi Calm Calm - N/A   Mostly Cloudy
3:35 AM 73.4 °F - 73.4 °F 100% 29.98 in 5.0 mi Calm Calm - N/A   Mostly Cloudy
4:15 AM 73.4 °F - 73.4 °F 100% 29.98 in 4.0 mi Calm Calm - N/A   Mostly Cloudy
4:55 AM 71.6 °F - 71.6 °F 100% 29.98 in 5.0 mi Calm Calm - N/A   Scattered Clouds
5:15 AM 71.6 °F - 71.6 °F 100% 29.99 in 5.0 mi Calm Calm - N/A   Scattered Clouds
5:35 AM 71.6 °F - 71.6 °F 100% 29.99 in 8.0 mi Calm Calm - N/A   Mostly Cloudy
5:55 AM 71.6 °F - 71.6 °F 100% 29.99 in 7.0 mi Calm Calm - N/A   Scattered Clouds
6:15 AM 71.6 °F - 71.6 °F 100% 30.00 in 9.0 mi Calm Calm - N/A   Scattered Clouds
6:55 AM 69.8 °F - 69.8 °F 100% 30.01 in 7.0 mi Calm Calm - N/A   Partly Cloudy
7:15 AM 69.8 °F - 69.8 °F 100% 30.01 in 8.0 mi Calm Calm - N/A   Clear
7:35 AM 71.6 °F - 71.6 °F 100% 30.01 in 8.0 mi Calm Calm - N/A   Clear
7:55 AM 75.2 °F - 73.4 °F 94% 30.02 in 8.0 mi Calm Calm - N/A   Clear
8:15 AM 77.0 °F - 73.4 °F 89% 30.02 in 10.0 mi Calm Calm - N/A   Clear
8:35 AM 80.6 °F 85.4 °F 73.4 °F 79% 30.03 in 10.0 mi Calm Calm - N/A   Clear
8:55 AM 82.4 °F 87.2 °F 71.6 °F 70% 30.04 in 10.0 mi Calm Calm - N/A   Clear
9:15 AM 86.0 °F 88.2 °F 66.2 °F 51% 30.04 in 10.0 mi Calm Calm - N/A   Clear
9:35 AM 86.0 °F 88.2 °F 66.2 °F 51% 30.04 in 10.0 mi Calm Calm - N/A   Clear
9:55 AM 86.0 °F 88.2 °F 66.2 °F 51% 30.05 in 10.0 mi Calm Calm - N/A   Clear
10:15 AM 86.0 °F 88.2 °F 66.2 °F 51% 30.05 in 10.0 mi Calm Calm - N/A   Clear
10:35 AM 89.6 °F 92.2 °F 66.2 °F 46% 30.05 in 10.0 mi Calm Calm - N/A   Clear
10:55 AM 91.4 °F 95.4 °F 68.0 °F 46% 30.05 in 10.0 mi Calm Calm - N/A   Clear
11:15 AM 91.4 °F 94.0 °F 66.2 °F 43% 30.05 in 10.0 mi Calm Calm - N/A   Clear
11:35 AM 93.2 °F 94.9 °F 64.4 °F 38% 30.05 in 10.0 mi Calm Calm - N/A   Clear
11:55 AM 93.2 °F 96.2 °F 66.2 °F 41% 30.04 in 10.0 mi Calm Calm - N/A   Clear
12:15 PM 95.0 °F 98.5 °F 66.2 °F 39% 30.04 in 10.0 mi Calm Calm - N/A   Clear
12:35 PM 95.0 °F 99.5 °F 68.0 °F 41% 30.03 in 10.0 mi Calm Calm - N/A   Clear
12:55 PM 96.8 °F 101.8 °F 68.0 °F 39% 30.02 in 10.0 mi Calm Calm - N/A   Clear
1:15 PM 98.6 °F 104.1 °F 68.0 °F 37% 30.01 in 10.0 mi Calm Calm - N/A   Clear
1:35 PM 98.6 °F 104.1 °F 68.0 °F 37% 30.01 in 10.0 mi WNW 4.6 mph - N/A   Clear
1:55 PM 98.6 °F 104.1 °F 68.0 °F 37% 30.00 in 10.0 mi West 5.8 mph - N/A   Clear
2:15 PM 98.6 °F 104.1 °F 68.0 °F 37% 29.99 in 10.0 mi Calm Calm - N/A   Clear
2:35 PM 100.4 °F 106.3 °F 68.0 °F 35% 29.98 in 10.0 mi NW 4.6 mph - N/A   Clear
2:55 PM 100.4 °F 107.8 °F 69.8 °F 37% 29.97 in 10.0 mi Calm Calm - N/A   Mostly Cloudy
3:15 PM 95.0 °F 101.3 °F 69.8 °F 44% 29.98 in 10.0 mi Calm Calm - N/A   Overcast
3:35 PM 100.4 °F 106.3 °F 68.0 °F 35% 29.96 in 10.0 mi West 4.6 mph - N/A   Scattered Clouds
3:55 PM 93.2 °F 98.8 °F 69.8 °F 46% 29.97 in 10.0 mi West 3.5 mph - N/A   Mostly Cloudy
4:15 PM 91.4 °F 96.8 °F 69.8 °F 49% 29.96 in 10.0 mi West 6.9 mph - N/A   Partly Cloudy
4:35 PM 91.4 °F 96.8 °F 69.8 °F 49% 29.96 in 10.0 mi West 4.6 mph - N/A   Clear
4:55 PM 95.0 °F 99.5 °F 68.0 °F 41% 29.97 in 10.0 mi Calm Calm - N/A   Clear
5:15 PM 93.2 °F 97.7 °F 68.0 °F 44% 29.97 in 10.0 mi Calm Calm - N/A   Mostly Cloudy
5:35 PM 93.2 °F 97.7 °F 68.0 °F 44% 29.96 in 10.0 mi Calm Calm - N/A   Overcast
5:55 PM 91.4 °F 95.4 °F 68.0 °F 46% 29.96 in 10.0 mi Calm Calm - N/A   Overcast
6:15 PM 89.6 °F 99.8 °F 75.2 °F 62% 29.96 in 10.0 mi South 6.9 mph - N/A   Overcast
6:55 PM 86.0 °F 95.1 °F 75.2 °F 70% 29.96 in 10.0 mi South 6.9 mph - N/A   Overcast
7:15 PM 86.0 °F 95.1 °F 75.2 °F 70% 29.96 in 10.0 mi Calm Calm - N/A   Overcast
7:35 PM 84.2 °F 92.3 °F 75.2 °F 74% 29.97 in 10.0 mi Calm Calm - N/A   Overcast
7:55 PM 84.2 °F 92.3 °F 75.2 °F 74% 29.97 in 10.0 mi Calm Calm - N/A   Overcast
8:15 PM 84.2 °F 92.3 °F 75.2 °F 74% 29.98 in 10.0 mi Calm Calm - N/A   Mostly Cloudy
8:35 PM 82.4 °F 89.5 °F 75.2 °F 79% 29.99 in 10.0 mi Calm Calm - N/A   Mostly Cloudy
8:55 PM 82.4 °F 89.5 °F 75.2 °F 79% 29.99 in 10.0 mi Calm Calm - N/A   Overcast
9:15 PM 80.6 °F 86.2 °F 75.2 °F 84% 29.99 in 10.0 mi Calm Calm - N/A   Overcast
9:35 PM 80.6 °F 86.2 °F 75.2 °F 84% 30.00 in 10.0 mi Calm Calm - N/A   Mostly Cloudy
9:55 PM 78.8 °F - 75.2 °F 89% 30.00 in 10.0 mi Calm Calm - N/A   Partly Cloudy
10:55 PM 77.0 °F - 75.2 °F 94% 30.01 in 8.0 mi Calm Calm - N/A   Mostly Cloudy
11:15 PM 77.0 °F - 75.2 °F 94% 30.00 in 9.0 mi Calm Calm - N/A   Overcast
11:35 PM 77.0 °F - 75.2 °F 94% 30.00 in 8.0 mi Calm Calm - N/A   Overcast
11:55 PM 77.0 °F - 75.2 °F 94% 30.00 in 8.0 mi Calm Calm - N/A   Overcast